Location: Eitze
(52.9840°N, 9.6894°E)
Time: 17:18:21
(UTC+00:00)

Cosmos 2082 Rocket - Pass Details

Date: 19 May 2025
Orbit: 832 x 853 km, 71.0° (Epoch: 16 June)

Event Time Altitude Azimuth Distance (km) Brightness Sun altitude
Exits shadow 21:41:57 15° 189° (S) 2,088 3.8 -14.1°
Maximum altitude 21:46:27 58° 114° (ESE) 970 2.3 -14.4°
Drops below altitude 10° 21:51:58 10° 37° (NE) 2,460 5.1 -14.7°
Sets 21:54:27 0° 34° (NNE) 3,401 5.9 -14.8°
